| time (UTC) | temp F | wind direction | speed knots | gust knots | rain 1hr in | rain 24hr in | rain mn in | humidity % | barometer mb |
| 20260507042455 | 40 | 348 | 2.6 | 4.3 | 0.00 | 0.00 | 0.00 | 89 | 1013.7 |
| 20260507041733 | 40 | 343 | 2.6 | 4.3 | 0.00 | 0.00 | 0.00 | 89 | 1013.8 |
| 20260507040722 | 40 | 14 | 2.6 | 4.3 | 0.00 | 0.00 | 0.00 | 89 | 1013.5 |
| 20260507040222 | 40 | 355 | 2.6 | 4.3 | 0.00 | 0.00 | 0.00 | 89 | 1013.6 |
| 20260507035722 | 40 | 11 | 2.6 | 3.5 | 0.00 | 0.00 | 0.00 | 89 | 1013.4 |
| 20260507035222 | 40 | 11 | 2.6 | 5.2 | 0.00 | 0.00 | 0.00 | 89 | 1013.4 |
| 20260507035007 | 40 | 348 | 1.7 | 5.2 | 0.00 | 0.00 | 0.00 | 89 | 1013.4 |
| 20260507034221 | 40 | 332 | 1.7 | 3.5 | 0.00 | 0.00 | 0.00 | 89 | 1013.3 |
| 20260507033723 | 41 | 9 | 2.6 | 4.3 | 0.00 | 0.00 | 0.00 | 89 | 1013.4 |
| 20260507033219 | 41 | 349 | 2.6 | 4.3 | 0.00 | 0.00 | 0.00 | 88 | 1013.3 |
| 20260507032720 | 41 | 9 | 2.6 | 4.3 | 0.00 | 0.00 | 0.00 | 88 | 1013.4 |
| 20260507032453 | 41 | 13 | 2.6 | 4.3 | 0.00 | 0.00 | 0.00 | 88 | 1013.3 |
| 20260507031722 | 41 | 0 | 2.6 | 4.3 | 0.00 | 0.00 | 0.00 | 88 | 1013.3 |
| 20260507031221 | 41 | 10 | 2.6 | 4.3 | 0.00 | 0.00 | 0.00 | 88 | 1013.3 |
| 20260507030952 | 41 | 15 | 1.7 | 4.3 | 0.00 | 0.00 | 0.00 | 88 | 1013.2 |
| 20260507030233 | 41 | 342 | 1.7 | 3.5 | 0.00 | 0.00 | 0.00 | 88 | 1013.2 |
| 20260507025719 | 41 | 351 | 1.7 | 4.3 | 0.00 | 0.00 | 0.00 | 88 | 1013.2 |
| 20260507025220 | 41 | 340 | 1.7 | 4.3 | 0.00 | 0.00 | 0.00 | 88 | 1013.2 |
| 20260507024720 | 41 | 27 | 1.7 | 4.3 | 0.00 | 0.00 | 0.00 | 88 | 1013.2 |
| 20260507024217 | 42 | 27 | 2.6 | 4.3 | 0.00 | 0.00 | 0.00 | 87 | 1013.2 |
| 20260507023717 | 42 | 349 | 1.7 | 4.3 | 0.00 | 0.00 | 0.00 | 87 | 1013.1 |
| 20260507023218 | 42 | 355 | 1.7 | 6.1 | 0.00 | 0.00 | 0.00 | 87 | 1013.0 |
| 20260507022719 | 42 | 9 | 2.6 | 6.1 | 0.00 | 0.00 | 0.00 | 87 | 1013.1 |
| 20260507022219 | 42 | 9 | 1.7 | 3.5 | 0.00 | 0.00 | 0.00 | 87 | 1013.1 |
| 20260507021717 | 42 | 0 | 1.7 | 4.3 | 0.00 | 0.00 | 0.00 | 87 | 1013.0 |
| 20260507021218 | 42 | 330 | 1.7 | 4.3 | 0.00 | 0.00 | 0.00 | 87 | 1013.0 |
| 20260507020717 | 42 | 355 | 1.7 | 5.2 | 0.00 | 0.00 | 0.00 | 87 | 1013.0 |
| 20260507020218 | 42 | 0 | 1.7 | 5.2 | 0.00 | 0.00 | 0.00 | 87 | 1012.8 |
| 20260507015717 | 42 | 27 | 1.7 | 5.2 | 0.00 | 0.00 | 0.00 | 86 | 1012.8 |
| 20260507015217 | 42 | 22 | 2.6 | 8.7 | 0.00 | 0.00 | 0.00 | 86 | 1012.7 |
| 20260507014717 | 42 | 15 | 3.5 | 8.7 | 0.00 | 0.00 | 0.00 | 87 | 1012.6 |
| 20260507014227 | 43 | 19 | 3.5 | 7.8 | 0.00 | 0.00 | 0.00 | 86 | 1012.6 |
| 20260507013223 | 43 | 19 | 3.5 | 9.6 | 0.00 | 0.00 | 0.00 | 86 | 1012.6 |
| 20260507012948 | 43 | 333 | 3.5 | 7.8 | 0.00 | 0.00 | 0.00 | 87 | 1012.7 |
| 20260507012212 | 43 | 24 | 3.5 | 7.8 | 0.00 | 0.00 | 0.00 | 86 | 1012.7 |
| 20260507011706 | 43 | 355 | 3.5 | 8.7 | 0.00 | 0.00 | 0.00 | 86 | 1012.6 |
| 20260507011159 | 43 | 13 | 3.5 | 8.7 | 0.00 | 0.00 | 0.00 | 86 | 1012.6 |
| 20260507010654 | 43 | 9 | 3.5 | 8.7 | 0.00 | 0.00 | 0.00 | 86 | 1012.7 |
| 20260507010148 | 43 | 355 | 3.5 | 8.7 | 0.00 | 0.00 | 0.00 | 86 | 1012.6 |
| 20260507005642 | 43 | 333 | 3.5 | 8.7 | 0.00 | 0.00 | 0.00 | 86 | 1012.7 |
| 20260507005136 | 43 | 342 | 3.5 | 8.7 | 0.00 | 0.00 | 0.00 | 86 | 1012.6 |
| 20260507004629 | 43 | 17 | 3.5 | 7.8 | 0.00 | 0.00 | 0.00 | 86 | 1012.6 |
| 20260507004126 | 43 | 0 | 3.5 | 7.8 | 0.00 | 0.00 | 0.00 | 86 | 1012.5 |
| 20260507003618 | 43 | 5 | 3.5 | 8.7 | 0.00 | 0.00 | 0.00 | 86 | 1012.5 |
| 20260507003112 | 43 | 350 | 3.5 | 7.0 | 0.00 | 0.00 | 0.00 | 86 | 1012.4 |
| 20260507002607 | 43 | 342 | 3.5 | 8.7 | 0.00 | 0.00 | 0.00 | 86 | 1012.4 |
| 20260507002333 | 43 | 5 | 3.5 | 8.7 | 0.00 | 0.00 | 0.00 | 86 | 1012.5 |
| 20260507001554 | 43 | 348 | 4.3 | 8.7 | 0.00 | 0.00 | 0.00 | 86 | 1012.4 |
| 20260507001047 | 43 | 344 | 3.5 | 7.8 | 0.00 | 0.00 | 0.00 | 86 | 1012.6 |
| 20260507000544 | 43 | 349 | 3.5 | 7.8 | 0.00 | 0.00 | 0.00 | 86 | 1012.6 |
| 20260507000037 | 43 | 351 | 3.5 | 7.0 | 0.00 | 0.00 | 0.00 | 86 | 1012.6 |
| 20260506235531 | 43 | 9 | 3.5 | 7.8 | 0.00 | 0.00 | 0.00 | 86 | 1012.6 |
| 20260506235024 | 43 | 349 | 3.5 | 7.8 | 0.00 | 0.00 | 0.00 | 85 | 1012.6 |
| 20260506234518 | 43 | 350 | 3.5 | 7.8 | 0.00 | 0.00 | 0.00 | 85 | 1012.6 |
| 20260506234012 | 43 | 16 | 3.5 | 7.8 | 0.00 | 0.00 | 0.00 | 85 | 1012.5 |
| 20260506233508 | 44 | 0 | 3.5 | 7.8 | 0.00 | 0.00 | 0.00 | 85 | 1012.5 |
| 20260506233000 | 44 | 355 | 3.5 | 7.8 | 0.00 | 0.00 | 0.00 | 85 | 1012.5 |
| 20260506232454 | 44 | 344 | 3.5 | 7.8 | 0.00 | 0.00 | 0.00 | 85 | 1012.5 |
| 20260506231948 | 44 | 5 | 3.5 | 7.8 | 0.00 | 0.00 | 0.00 | 85 | 1012.5 |
| 20260506231443 | 44 | 0 | 2.6 | 7.8 | 0.00 | 0.00 | 0.00 | 85 | 1012.5 |
| 20260506230937 | 44 | 345 | 2.6 | 5.2 | 0.00 | 0.00 | 0.00 | 85 | 1012.5 |
| 20260506230442 | 44 | 351 | 2.6 | 5.2 | 0.00 | 0.00 | 0.00 | 84 | 1012.6 |
| 20260506230154 | 44 | 0 | 3.5 | 7.0 | 0.00 | 0.00 | 0.00 | 84 | 1012.4 |
| 20260506225418 | 44 | 13 | 3.5 | 7.8 | 0.00 | 0.00 | 0.00 | 84 | 1012.5 |
| 20260506224915 | 44 | 355 | 3.5 | 7.0 | 0.00 | 0.00 | 0.00 | 84 | 1012.4 |
| 20260506224701 | 44 | 344 | 3.5 | 7.0 | 0.00 | 0.00 | 0.00 | 84 | 1012.4 |
| 20260506223415 | 45 | 347 | 3.5 | 7.0 | 0.00 | 0.00 | 0.00 | 83 | 1012.4 |
| 20260506222914 | 45 | 13 | 3.5 | 7.0 | 0.00 | 0.00 | 0.00 | 83 | 1012.3 |
| 20260506222429 | 45 | 344 | 3.5 | 7.0 | 0.00 | 0.00 | 0.00 | 83 | 1012.2 |
| 20260506221916 | 45 | 9 | 3.5 | 7.0 | 0.00 | 0.00 | 0.00 | 83 | 1012.1 |
| 20260506221415 | 45 | 329 | 3.5 | 7.8 | 0.00 | 0.00 | 0.00 | 82 | 1012.1 |
| 20260506220916 | 45 | 355 | 3.5 | 7.8 | 0.00 | 0.00 | 0.00 | 82 | 1012.2 |
| 20260506220415 | 46 | 351 | 3.5 | 7.8 | 0.00 | 0.00 | 0.00 | 82 | 1012.1 |
| 20260506215914 | 46 | 9 | 3.5 | 7.8 | 0.00 | 0.00 | 0.00 | 82 | 1011.9 |
| 20260506215414 | 46 | 10 | 3.5 | 7.8 | 0.00 | 0.00 | 0.00 | 82 | 1012.1 |
| 20260506214914 | 46 | 9 | 2.6 | 7.8 | 0.00 | 0.00 | 0.00 | 81 | 1012.1 |
| 20260506214414 | 46 | 9 | 3.5 | 8.7 | 0.00 | 0.00 | 0.00 | 81 | 1012.2 |
| 20260506214142 | 46 | 321 | 3.5 | 8.7 | 0.00 | 0.00 | 0.00 | 81 | 1012.2 |
| 20260506213411 | 47 | 351 | 3.5 | 7.8 | 0.00 | 0.00 | 0.00 | 81 | 1012.2 |
| 20260506212910 | 47 | 13 | 2.6 | 7.8 | 0.00 | 0.00 | 0.00 | 81 | 1012.1 |
| 20260506212409 | 47 | 348 | 2.6 | 7.8 | 0.00 | 0.00 | 0.00 | 80 | 1012.1 |
| 20260506212143 | 47 | 15 | 2.6 | 7.8 | 0.00 | 0.00 | 0.00 | 80 | 1012.0 |
| 20260506211409 | 48 | 9 | 3.5 | 9.6 | 0.00 | 0.00 | 0.00 | 80 | 1012.1 |
| 20260506210909 | 48 | 60 | 4.3 | 10.4 | 0.00 | 0.00 | 0.00 | 80 | 1012.0 |
| 20260506210407 | 48 | 38 | 3.5 | 10.4 | 0.00 | 0.00 | 0.00 | 80 | 1012.0 |
| 20260506205908 | 48 | 28 | 2.6 | 9.6 | 0.00 | 0.00 | 0.00 | 80 | 1011.9 |
| 20260506205408 | 48 | 65 | 2.6 | 7.8 | 0.00 | 0.00 | 0.00 | 79 | 1011.9 |
| 20260506204903 | 49 | 350 | 2.6 | 7.8 | 0.00 | 0.00 | 0.00 | 79 | 1011.9 |
| 20260506204405 | 49 | 0 | 3.5 | 8.7 | 0.00 | 0.00 | 0.00 | 79 | 1011.9 |
| 20260506203901 | 49 | 24 | 3.5 | 9.6 | 0.00 | 0.00 | 0.00 | 79 | 1011.9 |
| 20260506203403 | 49 | 118 | 3.5 | 9.6 | 0.00 | 0.00 | 0.00 | 79 | 1012.0 |
| 20260506202901 | 49 | 318 | 3.5 | 8.7 | 0.00 | 0.00 | 0.00 | 79 | 1011.9 |
| 20260506202402 | 49 | 325 | 3.5 | 7.8 | 0.00 | 0.00 | 0.00 | 78 | 1011.9 |
| 20260506201901 | 49 | 9 | 2.6 | 9.6 | 0.00 | 0.00 | 0.00 | 78 | 1011.9 |
| 20260506201358 | 50 | 47 | 2.6 | 9.6 | 0.00 | 0.00 | 0.00 | 78 | 1011.9 |
| 20260506200910 | 50 | 21 | 2.6 | 9.6 | 0.00 | 0.00 | 0.00 | 78 | 1011.8 |
| 20260506200358 | 50 | 336 | 3.5 | 8.7 | 0.00 | 0.00 | 0.00 | 77 | 1011.8 |
| 20260506195857 | 50 | 0 | 2.6 | 8.7 | 0.00 | 0.00 | 0.00 | 77 | 1011.7 |
| 20260506195412 | 50 | 15 | 2.6 | 7.0 | 0.00 | 0.00 | 0.00 | 76 | 1011.6 |
| 20260506194401 | 51 | 11 | 2.6 | 8.7 | 0.00 | 0.00 | 0.00 | 75 | 1011.4 |
| 20260506193857 | 51 | 28 | 2.6 | 9.6 | 0.00 | 0.00 | 0.00 | 75 | 1011.4 |
| 20260506193359 | 51 | 26 | 2.6 | 9.6 | 0.00 | 0.00 | 0.00 | 75 | 1011.3 |
| 20260506193129 | 51 | 18 | 2.6 | 8.7 | 0.00 | 0.00 | 0.00 | 74 | 1011.3 |
| 20260506192351 | 51 | 48 | 2.6 | 8.7 | 0.00 | 0.00 | 0.00 | 74 | 1011.2 |
| 20260506191842 | 51 | 38 | 2.6 | 7.8 | 0.00 | 0.00 | 0.00 | 73 | 1011.2 |
| 20260506191613 | 51 | 57 | 2.6 | 10.4 | 0.00 | 0.00 | 0.00 | 72 | 1011.1 |
| 20260506190832 | 51 | 58 | 3.5 | 10.4 | 0.00 | 0.00 | 0.00 | 72 | 1011.0 |
| 20260506190326 | 51 | 58 | 4.3 | 13.9 | 0.00 | 0.00 | 0.00 | 71 | 1011.0 |
| 20260506185820 | 51 | 88 | 3.5 | 13.9 | 0.00 | 0.00 | 0.00 | 71 | 1011.0 |
| 20260506185315 | 52 | 288 | 3.5 | 10.4 | 0.00 | 0.00 | 0.00 | 71 | 1011.0 |
| 20260506184808 | 52 | 55 | 5.2 | 13.0 | 0.00 | 0.00 | 0.00 | 71 | 1010.9 |
| 20260506184303 | 52 | 40 | 5.2 | 13.0 | 0.00 | 0.00 | 0.00 | 71 | 1010.8 |
| 20260506183759 | 52 | 34 | 4.3 | 11.3 | 0.00 | 0.00 | 0.00 | 71 | 1010.8 |
| 20260506183250 | 52 | 38 | 4.3 | 11.3 | 0.00 | 0.00 | 0.00 | 71 | 1010.7 |
| 20260506182744 | 52 | 344 | 4.3 | 11.3 | 0.00 | 0.00 | 0.00 | 70 | 1010.5 |
| 20260506182511 | 53 | 57 | 4.3 | 11.3 | 0.00 | 0.00 | 0.00 | 70 | 1010.6 |
| 20260506181732 | 53 | 46 | 5.2 | 11.3 | 0.00 | 0.00 | 0.00 | 69 | 1010.4 |
| 20260506181226 | 53 | 96 | 5.2 | 12.2 | 0.00 | 0.00 | 0.00 | 70 | 1010.4 |
| 20260506180720 | 53 | 91 | 5.2 | 13.0 | 0.00 | 0.00 | 0.00 | 70 | 1010.3 |
| 20260506180214 | 53 | 350 | 5.2 | 13.0 | 0.00 | 0.00 | 0.00 | 70 | 1010.2 |
| 20260506175709 | 54 | 0 | 5.2 | 11.3 | 0.00 | 0.00 | 0.00 | 70 | 1010.2 |
| 20260506175202 | 54 | 34 | 5.2 | 13.9 | 0.00 | 0.00 | 0.00 | 70 | 1010.1 |
| 20260506174656 | 54 | 58 | 5.2 | 13.9 | 0.00 | 0.00 | 0.00 | 69 | 1010.0 |
| 20260506174150 | 54 | 30 | 5.2 | 14.8 | 0.00 | 0.00 | 0.00 | 69 | 1009.9 |
| 20260506173644 | 55 | 26 | 5.2 | 14.8 | 0.00 | 0.00 | 0.00 | 70 | 1009.7 |
| 20260506173136 | 55 | 355 | 5.2 | 14.8 | 0.00 | 0.00 | 0.00 | 70 | 1009.8 |
| 20260506172631 | 55 | 51 | 3.5 | 11.3 | 0.00 | 0.00 | 0.00 | 70 | 1009.8 |
| 20260506172125 | 55 | 46 | 4.3 | 15.6 | 0.00 | 0.00 | 0.00 | 69 | 1009.5 |
| 20260506171620 | 55 | 62 | 3.5 | 15.6 | 0.00 | 0.00 | 0.00 | 69 | 1009.6 |
| 20260506171126 | 55 | 37 | 2.6 | 8.7 | 0.00 | 0.00 | 0.00 | 69 | 1009.5 |
| 20260506170606 | 55 | 0 | 3.5 | 8.7 | 0.00 | 0.00 | 0.00 | 69 | 1009.6 |
| 20260506170116 | 55 | 76 | 3.5 | 12.2 | 0.00 | 0.00 | 0.00 | 68 | 1009.5 |
| 20260506165556 | 55 | 67 | 3.5 | 12.2 | 0.00 | 0.00 | 0.00 | 68 | 1009.5 |
| 20260506165321 | 55 | 53 | 4.3 | 11.3 | 0.00 | 0.00 | 0.00 | 68 | 1009.5 |
| 20260506164544 | 55 | 32 | 4.3 | 11.3 | 0.00 | 0.00 | 0.00 | 69 | 1009.5 |
| 20260506164041 | 55 | 135 | 3.5 | 9.6 | 0.00 | 0.00 | 0.00 | 68 | 1009.4 |
| 20260506163532 | 55 | 92 | 3.5 | 11.3 | 0.00 | 0.00 | 0.00 | 69 | 1009.4 |
| 20260506163303 | 55 | 26 | 4.3 | 11.3 | 0.00 | 0.00 | 0.00 | 69 | 1009.4 |
| 20260506162520 | 55 | 26 | 3.5 | 10.4 | 0.00 | 0.00 | 0.00 | 69 | 1009.5 |
| 20260506162027 | 55 | 0 | 3.5 | 12.2 | 0.00 | 0.00 | 0.00 | 69 | 1009.5 |
| 20260506161511 | 56 | 61 | 3.5 | 12.2 | 0.00 | 0.00 | 0.00 | 69 | 1009.4 |
| 20260506161002 | 56 | 55 | 3.5 | 13.9 | 0.00 | 0.00 | 0.00 | 69 | 1009.4 |
| 20260506160458 | 56 | 62 | 3.5 | 13.9 | 0.00 | 0.00 | 0.00 | 69 | 1009.4 |
| 20260506155949 | 56 | 47 | 3.5 | 9.6 | 0.00 | 0.00 | 0.00 | 68 | 1009.4 |
| 20260506155445 | 56 | 62 | 3.5 | 9.6 | 0.00 | 0.00 | 0.00 | 67 | 1009.3 |
| 20260506155212 | 56 | 53 | 3.5 | 8.7 | 0.00 | 0.00 | 0.00 | 66 | 1009.4 |
| 20260506154432 | 56 | 49 | 2.6 | 8.7 | 0.00 | 0.00 | 0.00 | 64 | 1009.4 |
| 20260506153926 | 56 | 26 | 3.5 | 10.4 | 0.00 | 0.00 | 0.00 | 64 | 1009.5 |
| 20260506153420 | 56 | 41 | 3.5 | 10.4 | 0.00 | 0.00 | 0.00 | 64 | 1009.5 |
| 20260506152914 | 56 | 294 | 3.5 | 9.6 | 0.00 | 0.00 | 0.00 | 65 | 1009.4 |
| 20260506152413 | 56 | 78 | 3.5 | 11.3 | 0.00 | 0.00 | 0.00 | 63 | 1009.4 |
| 20260506152153 | 55 | 67 | 3.5 | 11.3 | 0.00 | 0.00 | 0.00 | 61 | 1009.4 |
| 20260506151413 | 55 | 73 | 2.6 | 8.7 | 0.00 | 0.00 | 0.00 | 62 | 1009.5 |
| 20260506150912 | 55 | 0 | 3.5 | 13.0 | 0.00 | 0.00 | 0.00 | 60 | 1009.4 |
| 20260506150419 | 55 | 63 | 4.3 | 13.0 | 0.00 | 0.00 | 0.00 | 61 | 1009.5 |
| 20260506145413 | 55 | 0 | 3.5 | 11.3 | 0.00 | 0.00 | 0.00 | 61 | 1009.4 |
| 20260506144913 | 55 | 71 | 3.5 | 12.2 | 0.00 | 0.00 | 0.00 | 64 | 1009.3 |
| 20260506144413 | 55 | 33 | 4.3 | 12.2 | 0.00 | 0.00 | 0.00 | 64 | 1009.4 |
| 20260506143914 | 55 | 25 | 4.3 | 11.3 | 0.00 | 0.00 | 0.00 | 64 | 1009.4 |
| 20260506143415 | 55 | 88 | 4.3 | 17.4 | 0.00 | 0.00 | 0.00 | 66 | 1009.3 |
| 20260506142914 | 55 | 351 | 4.3 | 17.4 | 0.00 | 0.00 | 0.00 | 66 | 1009.3 |
| 20260506142412 | 55 | 64 | 4.3 | 13.9 | 0.00 | 0.00 | 0.00 | 69 | 1009.3 |
| 20260506141914 | 54 | 68 | 4.3 | 13.9 | 0.00 | 0.00 | 0.00 | 68 | 1009.4 |
| 20260506141429 | 54 | 46 | 4.3 | 13.9 | 0.00 | 0.00 | 0.00 | 68 | 1009.4 |
| 20260506140409 | 55 | 64 | 3.5 | 12.2 | 0.00 | 0.00 | 0.00 | 71 | 1009.4 |
| 20260506135909 | 55 | 82 | 3.5 | 10.4 | 0.00 | 0.00 | 0.00 | 69 | 1009.4 |
| 20260506135408 | 55 | 327 | 3.5 | 10.4 | 0.00 | 0.00 | 0.00 | 69 | 1009.3 |
| 20260506134909 | 55 | 339 | 3.5 | 12.2 | 0.00 | 0.00 | 0.00 | 66 | 1009.3 |
| 20260506134408 | 55 | 75 | 3.5 | 12.2 | 0.00 | 0.00 | 0.00 | 66 | 1009.3 |
| 20260506134142 | 56 | 44 | 3.5 | 10.4 | 0.00 | 0.00 | 0.00 | 66 | 1009.3 |
| 20260506133410 | 56 | 38 | 3.5 | 10.4 | 0.00 | 0.00 | 0.00 | 64 | 1009.2 |
| 20260506132908 | 56 | 53 | 3.5 | 11.3 | 0.00 | 0.00 | 0.00 | 61 | 1009.3 |
| 20260506132407 | 56 | 63 | 3.5 | 11.3 | 0.00 | 0.00 | 0.00 | 57 | 1009.2 |
| 20260506131906 | 56 | 86 | 3.5 | 11.3 | 0.00 | 0.00 | 0.00 | 57 | 1009.3 |
| 20260506131406 | 56 | 77 | 3.5 | 8.7 | 0.00 | 0.00 | 0.00 | 57 | 1009.2 |
| 20260506130907 | 56 | 80 | 3.5 | 9.6 | 0.00 | 0.00 | 0.00 | 60 | 1009.2 |
| 20260506130408 | 56 | 103 | 3.5 | 10.4 | 0.00 | 0.00 | 0.00 | 58 | 1009.1 |
| 20260506125907 | 56 | 88 | 3.5 | 10.4 | 0.00 | 0.00 | 0.00 | 58 | 1009.1 |
| 20260506125407 | 56 | 92 | 4.3 | 13.0 | 0.00 | 0.00 | 0.00 | 59 | 1009.1 |
| 20260506125143 | 56 | 97 | 3.5 | 13.0 | 0.00 | 0.00 | 0.00 | 57 | 1009.1 |
| 20260506124408 | 56 | 123 | 3.5 | 13.9 | 0.00 | 0.00 | 0.00 | 59 | 1009.1 |
| 20260506123906 | 56 | 78 | 4.3 | 13.9 | 0.00 | 0.00 | 0.00 | 59 | 1009.2 |
| 20260506123406 | 56 | 111 | 4.3 | 11.3 | 0.00 | 0.00 | 0.00 | 59 | 1009.0 |
| 20260506123140 | 56 | 344 | 4.3 | 11.3 | 0.00 | 0.00 | 0.00 | 60 | 1009.0 |
| 20260506122420 | 56 | 103 | 4.3 | 9.6 | 0.00 | 0.00 | 0.00 | 60 | 1009.0 |
| 20260506121915 | 56 | 177 | 4.3 | 13.0 | 0.00 | 0.00 | 0.00 | 61 | 1009.2 |
| 20260506121403 | 56 | 125 | 4.3 | 13.0 | 0.00 | 0.00 | 0.00 | 60 | 1009.1 |
| 20260506120904 | 56 | 355 | 3.5 | 12.2 | 0.00 | 0.00 | 0.00 | 60 | 1009.1 |
| 20260506120403 | 56 | 78 | 2.6 | 12.2 | 0.00 | 0.00 | 0.00 | 59 | 1009.0 |
| 20260506120138 | 56 | 107 | 3.5 | 10.4 | 0.00 | 0.00 | 0.00 | 62 | 1008.9 |
| 20260506115403 | 56 | 63 | 4.3 | 10.4 | 0.00 | 0.00 | 0.00 | 60 | 1009.0 |
| 20260506114902 | 56 | 103 | 3.5 | 10.4 | 0.00 | 0.00 | 0.00 | 60 | 1009.0 |
| 20260506114400 | 56 | 0 | 3.5 | 9.6 | 0.00 | 0.00 | 0.00 | 61 | 1008.9 |
| 20260506113902 | 56 | 0 | 3.5 | 14.8 | 0.00 | 0.00 | 0.00 | 61 | 1008.9 |
| 20260506113401 | 56 | 0 | 4.3 | 14.8 | 0.00 | 0.00 | 0.00 | 60 | 1008.9 |
| 20260506112855 | 55 | 0 | 4.3 | 13.0 | 0.00 | 0.00 | 0.00 | 61 | 1008.9 |
| 20260506112349 | 55 | 0 | 3.5 | 10.4 | 0.00 | 0.00 | 0.00 | 62 | 1008.8 |
| 20260506112132 | 55 | 0 | 3.5 | 10.4 | 0.00 | 0.00 | 0.00 | 63 | 1008.9 |
| 20260506111339 | 55 | 111 | 4.3 | 10.4 | 0.00 | 0.00 | 0.00 | 61 | 1008.9 |
| 20260506110829 | 55 | 153 | 4.3 | 10.4 | 0.00 | 0.00 | 0.00 | 62 | 1008.9 |
| 20260506110327 | 55 | 100 | 3.5 | 10.4 | 0.00 | 0.00 | 0.00 | 62 | 1008.9 |
| 20260506105819 | 55 | 118 | 3.5 | 10.4 | 0.00 | 0.00 | 0.00 | 63 | 1008.8 |
| 20260506105315 | 55 | 118 | 4.3 | 13.0 | 0.00 | 0.00 | 0.00 | 62 | 1008.9 |
| 20260506104807 | 55 | 319 | 4.3 | 13.0 | 0.00 | 0.00 | 0.00 | 63 | 1008.9 |
| 20260506104031 | 55 | 151 | 3.5 | 10.4 | 0.00 | 0.00 | 0.00 | 62 | 1008.7 |
| 20260506103249 | 55 | 140 | 3.5 | 9.6 | 0.00 | 0.00 | 0.00 | 62 | 1008.8 |
| 20260506103021 | 54 | 342 | 3.5 | 11.3 | 0.00 | 0.00 | 0.00 | 62 | 1008.8 |
| 20260506102237 | 54 | 94 | 4.3 | 11.3 | 0.00 | 0.00 | 0.00 | 61 | 1008.9 |
| 20260506101732 | 54 | 116 | 4.3 | 10.4 | 0.00 | 0.00 | 0.00 | 63 | 1008.8 |
| 20260506101225 | 54 | 355 | 4.3 | 15.6 | 0.00 | 0.00 | 0.00 | 62 | 1008.7 |
| 20260506100719 | 54 | 104 | 4.3 | 15.6 | 0.00 | 0.00 | 0.00 | 61 | 1008.6 |
| 20260506100227 | 54 | 115 | 3.5 | 12.2 | 0.00 | 0.00 | 0.00 | 62 | 1008.7 |
| 20260506095707 | 54 | 86 | 3.5 | 11.3 | 0.00 | 0.00 | 0.00 | 62 | 1008.6 |
| 20260506095434 | 54 | 337 | 3.5 | 11.3 | 0.00 | 0.00 | 0.00 | 63 | 1008.5 |
| 20260506094930 | 54 | 105 | 3.5 | 9.6 | 0.00 | 0.00 | 0.00 | 62 | 1008.6 |
| 20260506094423 | 54 | 0 | 4.3 | 10.4 | 0.00 | 0.00 | 0.00 | 63 | 1008.5 |
| 20260506093915 | 54 | 148 | 4.3 | 11.3 | 0.00 | 0.00 | 0.00 | 62 | 1008.5 |
| 20260506093137 | 54 | 159 | 3.5 | 11.3 | 0.00 | 0.00 | 0.00 | 62 | 1008.6 |
| 20260506092631 | 54 | 113 | 3.5 | 11.3 | 0.00 | 0.00 | 0.00 | 64 | 1008.5 |
| 20260506092125 | 54 | 355 | 3.5 | 11.3 | 0.00 | 0.00 | 0.00 | 63 | 1008.5 |
| 20260506091617 | 54 | 88 | 3.5 | 11.3 | 0.00 | 0.00 | 0.00 | 63 | 1008.5 |
| 20260506091114 | 54 | 72 | 3.5 | 11.3 | 0.00 | 0.00 | 0.00 | 63 | 1008.5 |
| 20260506090608 | 54 | 92 | 3.5 | 11.3 | 0.00 | 0.00 | 0.00 | 62 | 1008.5 |
| 20260506085553 | 54 | 78 | 4.3 | 12.2 | 0.00 | 0.00 | 0.00 | 65 | 1008.4 |
| 20260506085320 | 54 | 94 | 4.3 | 12.2 | 0.00 | 0.00 | 0.00 | 65 | 1008.4 |
| 20260506084555 | 54 | 84 | 3.5 | 12.2 | 0.00 | 0.00 | 0.00 | 67 | 1008.4 |
| 20260506084312 | 54 | 74 | 4.3 | 12.2 | 0.00 | 0.00 | 0.00 | 67 | 1008.3 |
| 20260506083531 | 54 | 134 | 4.3 | 12.2 | 0.00 | 0.00 | 0.00 | 68 | 1008.4 |
| 20260506083025 | 53 | 65 | 4.3 | 13.0 | 0.00 | 0.00 | 0.00 | 68 | 1008.4 |
| 20260506082519 | 53 | 106 | 3.5 | 13.0 | 0.00 | 0.00 | 0.00 | 68 | 1008.3 |
| 20260506082014 | 53 | 87 | 3.5 | 11.3 | 0.00 | 0.00 | 0.00 | 71 | 1008.3 |
| 20260506081509 | 53 | 82 | 3.5 | 11.3 | 0.00 | 0.00 | 0.00 | 70 | 1008.2 |
| 20260506081001 | 53 | 90 | 3.5 | 13.0 | 0.00 | 0.00 | 0.00 | 73 | 1008.3 |
| 20260506080730 | 53 | 120 | 3.5 | 13.0 | 0.00 | 0.00 | 0.00 | 74 | 1008.3 |
| 20260506073421 | 51 | 43 | 2.6 | 7.0 | 0.00 | 0.00 | 0.00 | 81 | 1008.1 |
| 20260506072914 | 51 | 46 | 2.6 | 10.4 | 0.00 | 0.00 | 0.00 | 82 | 1008.1 |
| 20260506072407 | 51 | 41 | 2.6 | 10.4 | 0.00 | 0.00 | 0.00 | 82 | 1008.0 |
| 20260506071915 | 51 | 336 | 2.6 | 7.8 | 0.00 | 0.00 | 0.00 | 83 | 1008.1 |
| 20260506071355 | 50 | 49 | 2.6 | 9.6 | 0.00 | 0.00 | 0.00 | 83 | 1008.0 |
| 20260506070849 | 50 | 31 | 2.6 | 9.6 | 0.00 | 0.00 | 0.00 | 83 | 1008.0 |
| 20260506070614 | 50 | 71 | 2.6 | 7.0 | 0.00 | 0.00 | 0.00 | 84 | 1008.0 |
| 20260506062317 | 49 | 52 | 2.6 | 10.4 | 0.00 | 0.00 | 0.00 | 84 | 1007.9 |
| 20260506061818 | 49 | 38 | 2.6 | 10.4 | 0.00 | 0.00 | 0.00 | 84 | 1007.9 |
| 20260506061318 | 48 | 19 | 2.6 | 7.8 | 0.00 | 0.00 | 0.00 | 84 | 1007.9 |
| 20260506061049 | 48 | 29 | 1.7 | 7.8 | 0.00 | 0.00 | 0.00 | 84 | 1007.9 |
| 20260506060316 | 48 | 30 | 2.6 | 11.3 | 0.00 | 0.00 | 0.00 | 84 | 1007.9 |
| 20260506050810 | 48 | 19 | 4.3 | 13.0 | 0.00 | 0.00 | 0.00 | 85 | 1007.9 |
| 20260506050311 | 48 | 28 | 3.5 | 10.4 | 0.00 | 0.00 | 0.00 | 85 | 1007.8 |
| 20260506044806 | 48 | 355 | 3.5 | 9.6 | 0.00 | 0.00 | 0.00 | 85 | 1007.9 |
| 20260506044307 | 48 | 27 | 4.3 | 9.6 | 0.00 | 0.00 | 0.00 | 85 | 1007.8 |
| 20260506043808 | 48 | 40 | 3.5 | 8.7 | 0.00 | 0.00 | 0.00 | 85 | 1007.8 |
| 20260506043306 | 48 | 24 | 3.5 | 7.8 | 0.00 | 0.00 | 0.00 | 85 | 1007.7 |
| 20260506042806 | 48 | 338 | 4.3 | 12.2 | 0.00 | 0.00 | 0.00 | 85 | 1007.8 |